www.pogodaiklimat.ru

Погода и климат >> Архив погоды >> Италия >> Дезенцано


ПОГОДА в Дезенцано

  • Прогноз погоды в Дезенцано
  • Монитор погоды в Дезенцано

АРХИВ ПОГОДЫ в Дезенцано

Время (UTC), дата Ветер
(напр.,м/с)
 
Видим.   Явления Облачность Т
(С)
Тd
(С)
f
(%)
Тe
(С)
Тes
(С)
Комфортность P
(гПа)
Po
(гПа)
Тmin
(С)
Tmax
(С)
R
(мм)
R24
(мм)
S
(см)
01 17.03 штиль 0 н/о н/о +8.6 +6.2 85 +8 +8 1015.7 1007.6
02 17.03 штиль 0 н/о н/о +8.5 +6.1 85 +8 +8 1015.7 1007.6
03 17.03 штиль 0 н/о н/о +8.1 +5.7 85 +7 +7 1015.6 1007.5
04 17.03 штиль 0 н/о н/о +8.1 +5.9 86 +7 +7 1015.8 1007.7
05 17.03 штиль 0 н/о н/о +7.3 +5.3 87 +6 +6 1015.9 1007.8
06 17.03 штиль 0 н/о н/о +6.7 +5.5 92 +6 +6 1016.0 1007.9 +6.6 0
07 17.03 штиль 0 н/о н/о +8.0 +7.5 97 +7 +7 1016.3 1008.2
08 17.03 штиль 0 н/о н/о +11.4 +10.8 96 +11 +11 1016.3 1008.3
09 17.03 штиль 0 н/о н/о +14.0 +10.6 80 +14 +14 1016.1 1008.2
10 17.03 штиль 0 н/о н/о +13.8 +9.8 77 +13 +13 1015.7 1007.8
11 17.03 штиль 0 н/о н/о +14.1 +11.0 82 +14 +14 1015.5 1007.6
12 17.03 С 1 н/о н/о +14.6 +11.2 80 +15 +15 1014.5 1006.6
13 17.03 штиль 0 н/о н/о +14.6 +11.2 80 +14 +14 1013.6 1005.7
14 17.03 штиль 0 н/о н/о +15.1 +11.3 78 +15 +15 1013.1 1005.2
15 17.03 штиль 0 н/о н/о +15.5 +11.4 77 +15 +15 1012.2 1004.3
16 17.03 штиль 0 н/о н/о +15.4 +11.2 76 +15 +15 1011.9 1004.0
17 17.03 штиль 0 н/о н/о +15.0 +10.4 74 +15 +15 1011.5 1003.6
18 17.03 штиль 0 н/о н/о +14.2 +10.8 80 +14 +14 1011.3 1003.4 +15.9
19 17.03 штиль 0 н/о н/о +14.6 +10.2 75 +14 +14 1011.0 1003.1
20 17.03 штиль 0 н/о н/о +14.2 +10.0 76 +14 +14 1010.9 1003.0
21 17.03 штиль 0 н/о н/о +13.7 +9.7 77 +13 +13 1010.7 1002.8
22 17.03 штиль 0 н/о н/о +13.8 +10.4 80 +13 +13 1010.4 1002.5
23 17.03 штиль 0 н/о н/о +13.4 +9.8 79 +13 +13 1009.8 1001.9
00 18.03 штиль 0 н/о н/о +13.0 +10.1 83 +13 +13 1009.5 1001.6
01 18.03 штиль 0 н/о н/о +12.5 +9.8 84 +12 +12 1009.2 1001.3
02 18.03 штиль 0 н/о н/о +12.3 +10.2 87 +12 +12 1008.6 1000.7
03 18.03 штиль 0 н/о н/о +12.3 +11.2 93 +12 +12 1008.4 1000.5
04 18.03 штиль 0 н/о н/о +11.9 +11.3 96 +11 +11 1008.9 1001.0
05 18.03 штиль 0 н/о н/о +11.0 +10.4 96 +10 +10 1009.7 1001.7
06 18.03 С 17 н/о н/о +7.0 +5.6 91 -0 -0 1011.1 1003.0 +6.9 633
07 18.03 С 13 н/о н/о +7.6 +5.4 86 +2 +2 1012.2 1004.1
08 18.03 С 12 н/о н/о +8.2 +4.2 76 +3 +3 1013.0 1004.9
09 18.03 С 11 н/о н/о +9.4 +3.7 68 +5 +5 1013.6 1005.6
10 18.03 С 10 н/о н/о +10.0 +4.1 67 +6 +6 1014.2 1006.2
11 18.03 С 11 н/о н/о +10.4 +3.6 63 +6 +6 1014.6 1006.6
12 18.03 С 9 н/о н/о +11.2 +4.1 62 +8 +8 1014.9 1006.9
13 18.03 С 3 н/о н/о +12.4 +5.7 64 +11 +11 1014.6 1006.6
14 18.03 С 3 н/о н/о +12.6 +6.4 66 +11 +11 1014.3 1006.3
15 18.03 С 1 н/о н/о +13.2 +6.5 64 +13 +13 1014.6 1006.7
16 18.03 ЮВ 2 н/о н/о +14.3 +6.1 58 +14 +14 1015.2 1007.3
17 18.03 В 3 н/о н/о +13.4 +6.0 61 +13 +13 1016.3 1008.3
18 18.03 В 2 н/о н/о +10.6 +5.7 72 +9 +9 1017.7 1009.7 +14.5
19 18.03 В 1 н/о н/о +9.6 +4.7 71 +9 +9 1018.8 1010.7
20 18.03 штиль 0 н/о н/о +9.4 +3.3 66 +9 +9 1019.6 1011.5
21 18.03 В 1 н/о н/о +9.2 +2.4 62 +10 +10 1020.4 1012.3
22 18.03 штиль 0 н/о н/о +8.0 +1.7 64 +8 +8 1020.8 1012.7
23 18.03 штиль 0 н/о н/о +6.8 +1.4 68 +6 +6 1021.2 1013.0
00 19.03 штиль 0 н/о н/о +5.4 +1.5 76 +5 +5 1021.3 1013.1
01 19.03 штиль 0 н/о н/о +4.8 +1.8 81 +4 +4 1021.2 1013.0
02 19.03 ЮЗ 1 н/о н/о +4.4 +1.6 82 +3 +3 1021.0 1012.8
03 19.03 ЮЗ 1 н/о н/о +4.4 +1.7 83 +4 +4 1020.8 1012.6
04 19.03 штиль 0 н/о н/о +4.0 +1.5 84 +3 +3 1021.2 1012.9
05 19.03 ЮЗ 1 н/о н/о +4.4 +1.6 82 +3 +3 1021.3 1013.0
06 19.03 штиль 0 н/о н/о +4.3 +1.3 81 +3 +3 1021.8 1013.5 +3.9 0
07 19.03 штиль 0 н/о н/о +6.8 +3.2 78 +6 +6 1022.6 1014.4
08 19.03 С 2 н/о н/о +8.6 +4.2 74 +7 +7 1022.9 1014.8
09 19.03 штиль 0 н/о н/о +9.7 +3.8 67 +9 +9 1023.4 1015.3
10 19.03 штиль 0 н/о н/о +11.2 +5.2 67 +11 +11 1023.4 1015.4
11 19.03 ЮВ 1 н/о н/о +14.8 +3.2 46 +15 +15 1023.4 1015.4
12 19.03 ЮЗ 1 н/о н/о +14.4 +2.5 45 +15 +15 1023.1 1015.1
13 19.03 Ю 1 н/о н/о +14.7 +1.8 42 +16 +16 1023.0 1015.0
14 19.03 С 2 н/о н/о +12.3 +3.4 55 +12 +12 1022.9 1014.9
15 19.03 В 2 н/о н/о +12.7 +0.3 43 +13 +13 1023.0 1015.0
16 19.03 В 2 н/о н/о +13.3 +0.9 43 +13 +13 1023.1 1015.1
17 19.03 ЮВ 1 н/о н/о +13.0 +0.6 43 +14 +14 1023.6 1015.6
18 19.03 штиль 0 н/о н/о +11.2 -0.1 46 +11 +11 1024.6 1016.5 +15.4
19 19.03 ЮВ 1 н/о н/о +11.1 +0.1 47 +12 +12 1025.7 1017.6
20 19.03 штиль 0 н/о н/о +10.0 +0.5 52 +10 +10 1026.6 1018.5
21 19.03 штиль 0 н/о н/о +7.6 -0.5 56 +7 +7 1027.4 1019.2
22 19.03 штиль 0 н/о н/о +6.3 -0.1 64 +6 +6 1027.9 1019.7
23 19.03 штиль 0 н/о н/о +5.5 -0.2 67 +5 +5 1028.2 1019.9
00 20.03 штиль 0 н/о н/о +4.8 -0.1 71 +4 +4 1028.6 1020.3
01 20.03 штиль 0 н/о н/о +4.4 +0.1 74 +4 +4 1029.0 1020.7
02 20.03 штиль 0 н/о н/о +4.4 +0.9 78 +4 +4 1029.0 1020.7
03 20.03 штиль 0 н/о н/о +3.9 +0.7 80 +3 +3 1029.1 1020.8
04 20.03 штиль 0 н/о н/о +3.8 +0.4 78 +3 +3 1029.3 1021.0
05 20.03 штиль 0 н/о н/о +3.7 +0.5 80 +3 +3 1029.7 1021.4
06 20.03 З 1 н/о н/о +6.0 +2.2 77 +6 +6 1030.4 1022.1 +3.6 1
07 20.03 СЗ 1 н/о н/о +7.3 +2.3 71 +7 +7 1030.9 1022.7
08 20.03 С 2 н/о н/о +8.2 +1.0 60 +7 +7 1031.6 1023.4
09 20.03 штиль 0 н/о н/о +9.0 +2.0 61 +9 +9 1031.8 1023.6
10 20.03 СЗ 1 н/о н/о +10.0 +3.0 62 +11 +11 1031.9 1023.7
11 20.03 СЗ 1 н/о н/о +13.0 +5.1 59 +14 +14 1031.5 1023.4
12 20.03 С 1 н/о н/о +12.8 +3.4 53 +13 +13 1031.1 1023.0
13 20.03 С 1 н/о н/о +12.7 +2.7 51 +14 +14 1030.2 1022.1
14 20.03 СВ 1 н/о н/о +13.5 +6.1 61 +15 +15 1029.4 1021.4
15 20.03 СВ 1 н/о н/о +12.9 +4.5 57 +13 +13 1029.2 1021.1
16 20.03 штиль 0 н/о н/о +13.2 +1.1 44 +13 +13 1029.2 1021.1
17 20.03 штиль 0 н/о н/о +13.5 +0.7 42 +13 +13 1029.6 1021.5
18 20.03 штиль 0 н/о н/о +12.1 -0.2 43 +12 +12 1030.2 1022.1 +14.3
19 20.03 штиль 0 н/о н/о +9.8 -1.4 46 +10 +10 1031.3 1023.1
20 20.03 штиль 0 н/о н/о +8.4 -1.3 50 +8 +8 1032.1 1023.9
21 20.03 штиль 0 н/о н/о +7.1 -0.9 57 +7 +7 1032.6 1024.3
22 20.03 штиль 0 н/о н/о +6.2 -0.9 60 +6 +6 1032.9 1024.6
23 20.03 штиль 0 н/о н/о +5.5 -1.1 62 +5 +5 1032.9 1024.6
00 21.03 штиль 0 н/о н/о +5.2 -1.4 62 +5 +5 1033.2 1024.9
01 21.03 СЗ 1 н/о н/о +5.0 +0.7 74 +4 +4 1033.4 1025.1
02 21.03 штиль 0 н/о н/о +5.4 -0.3 67 +5 +5 1033.1 1024.8
03 21.03 штиль 0 н/о н/о +4.8 +0.1 72 +4 +4 1032.8 1024.5
04 21.03 штиль 0 н/о н/о +4.8 -0.1 71 +4 +4 1033.0 1024.7
05 21.03 З 1 н/о н/о +5.7 +1.9 77 +6 +6 1033.1 1024.8
06 21.03 З 1 н/о н/о +4.6 +0.7 76 +3 +3 1033.8 1025.5 +4.3 2
07 21.03 СЗ 3 н/о н/о +7.5 +2.1 69 +5 +5 1034.4 1026.1
08 21.03 СЗ 2 н/о н/о +8.8 +2.5 65 +7 +7 1034.3 1026.1
09 21.03 С 3 н/о н/о +9.0 +2.3 63 +7 +7 1034.5 1026.3
10 21.03 С 2 н/о н/о +10.2 +3.6 64 +9 +9 1034.2 1026.0
11 21.03 штиль 0 н/о н/о +11.5 +4.9 64 +11 +11 1033.6 1025.5
12 21.03 штиль 0 н/о н/о +13.4 +5.7 60 +13 +13 1032.9 1024.8
13 21.03 С 1 н/о н/о +13.4 +6.0 61 +15 +15 1032.1 1024.0
14 21.03 штиль 0 н/о н/о +14.5 +7.0 61 +14 +14 1031.3 1023.3
15 21.03 С 1 н/о н/о +13.2 +6.2 62 +14 +14 1030.8 1022.7
17 21.03 штиль 0 н/о н/о +13.7 +2.5 47 +14 +14 1030.1 1022.0
18 21.03 штиль 0 н/о н/о +12.1 +4.2 58 +12 +12 1030.4 1022.3 +14.8
19 21.03 штиль 0 н/о н/о +10.1 +3.1 62 +10 +10 1031.0 1022.8
20 21.03 штиль 0 н/о н/о +9.0 +2.5 64 +9 +9 1031.4 1023.2
21 21.03 штиль 0 н/о н/о +7.9 +2.5 69 +7 +7 1031.7 1023.5
22 21.03 штиль 0 н/о н/о +7.2 +1.2 66 +7 +7 1032.0 1023.7
23 21.03 штиль 0 н/о н/о +6.7 +0.5 65 +6 +6 1032.0 1023.7
00 22.03 штиль 0 н/о н/о +6.3 +0.3 65 +6 +6 1032.0 1023.7
01 22.03 штиль 0 н/о н/о +5.8 +0.5 69 +5 +5 1031.7 1023.4
02 22.03 штиль 0 н/о н/о +5.7 +0.8 71 +5 +5 1031.4 1023.1
03 22.03 штиль 0 н/о н/о +5.9 +1.0 71 +5 +5 1031.1 1022.8
04 22.03 штиль 0 н/о н/о +6.2 +1.1 70 +6 +6 1031.0 1022.7
05 22.03 З 1 н/о н/о +7.5 +2.7 72 +8 +8 1031.1 1022.9
06 22.03 СЗ 3 н/о н/о +8.6 +4.0 73 +6 +6 1031.2 1023.0 +5.3 5
07 22.03 СЗ 4 н/о н/о +9.9 +3.1 63 +8 +8 1031.5 1023.3
08 22.03 СЗ 4 н/о н/о +11.1 +4.5 64 +9 +9 1031.4 1023.3
09 22.03 СЗ 3 н/о н/о +12.3 +5.6 64 +11 +11 1031.4 1023.3
10 22.03 СЗ 3 н/о н/о +12.1 +5.7 65 +11 +11 1031.2 1023.1
11 22.03 штиль 0 н/о н/о +15.2 +6.1 55 +15 +15 1030.6 1022.6
12 22.03 штиль 0 н/о н/о +14.9 +6.9 59 +15 +15 1030.1 1022.1
13 22.03 штиль 0 н/о н/о +16.2 +7.1 55 +16 +16 1029.2 1021.2
14 22.03 штиль 0 н/о н/о +16.5 +6.8 53 +16 +16 1028.6 1020.6
15 22.03 штиль 0 н/о н/о +17.0 +7.3 53 +17 +17 1027.7 1019.8
16 22.03 штиль 0 н/о н/о +16.1 +8.0 59 +16 +16 1027.3 1019.3
17 22.03 штиль 0 н/о н/о +14.9 +7.6 62 +15 +15 1027.2 1019.2
18 22.03 штиль 0 н/о н/о +13.2 +4.8 57 +13 +13 1027.2 1019.2 +17.1
19 22.03 штиль 0 н/о н/о +12.1 +4.2 58 +12 +12 1027.6 1019.5
20 22.03 штиль 0 н/о н/о +11.4 +2.1 53 +11 +11 1027.6 1019.5
21 22.03 штиль 0 н/о н/о +10.1 +1.9 57 +10 +10 1028.0 1019.9
22 22.03 штиль 0 н/о н/о +9.8 +2.1 59 +9 +9 1027.8 1019.7
23 22.03 штиль 0 н/о н/о +9.0 +1.6 60 +9 +9 1027.9 1019.7
00 23.03 штиль 0 н/о н/о +8.5 +2.0 64 +8 +8 1027.6 1019.4
01 23.03 штиль 0 н/о н/о +8.6 +2.1 64 +8 +8 1027.2 1019.0
02 23.03 штиль 0 н/о н/о +7.9 +1.6 64 +7 +7 1026.7 1018.5
03 23.03 штиль 0 н/о н/о +7.6 +2.0 68 +7 +7 1026.4 1018.2
04 23.03 З 2 н/о н/о +8.9 +4.3 73 +7 +7 1026.3 1018.2
05 23.03 СЗ 3 н/о н/о +11.7 +4.1 60 +10 +10 1026.1 1018.0
06 23.03 СЗ 3 н/о н/о +11.8 +4.9 63 +10 +10 1026.4 1018.3 +7.4 6
07 23.03 СЗ 3 н/о н/о +12.4 +5.2 61 +11 +11 1026.7 1018.6
08 23.03 СЗ 6 н/о н/о +12.7 +6.9 68 +10 +10 1026.7 1018.6
09 23.03 СЗ 4 н/о н/о +13.0 +6.7 66 +12 +12 1026.7 1018.7
10 23.03 С 2 н/о н/о +13.2 +6.9 66 +13 +13 1026.3 1018.3
11 23.03 штиль 0 н/о н/о +15.9 +8.6 62 +16 +16 1025.7 1017.8
12 23.03 штиль 0 н/о н/о +15.7 +8.9 64 +16 +16 1025.0 1017.1
13 23.03 штиль 0 н/о н/о +17.0 +9.4 61 +17 +17 1024.4 1016.5
14 23.03 штиль 0 н/о н/о +17.0 +10.1 64 +17 +17 1023.7 1015.8
15 23.03 штиль 0 н/о н/о +17.6 +7.8 53 +18 +18 1023.3 1015.4
16 23.03 штиль 0 н/о н/о +18.6 +8.2 51 +19 +19 1023.1 1015.2
17 23.03 штиль 0 н/о н/о +17.4 +9.7 61 +17 +17 1023.0 1015.1
18 23.03 штиль 0 н/о н/о +15.5 +5.9 53 +15 +15 1023.0 1015.1 +18.7
19 23.03 штиль 0 н/о н/о +14.4 +5.4 55 +14 +14 1023.9 1015.9
20 23.03 штиль 0 н/о н/о +12.9 +5.0 59 +13 +13 1024.1 1016.1
21 23.03 штиль 0 н/о н/о +11.7 +4.8 63 +11 +11 1024.3 1016.2
22 23.03 штиль 0 н/о н/о +11.8 +4.4 60 +12 +12 1024.3 1016.2
23 23.03 штиль 0 н/о н/о +11.2 +3.6 59 +11 +11 1024.2 1016.1
00 24.03 штиль 0 н/о н/о +10.7 +3.4 61 +10 +10 1024.0 1015.9

 

Местоположение метеостанции Дезенцано (Италия): широта 45.67 долгота 10.55 высота над уровнем моря 64 м.

В архиве по умолчанию представлена погода в Дезенцано за последнюю неделю. Архивные данные за месяц целиком и за предыдущие месяцы, начиная с января 2011 года, Вы можете получить, выбрав интересующий диапазон дат из раскрывающегося списка и нажав кнопку "Ввод!".


*Определитесь, кто Вы:
робот инопланетянин человек

Внимание! Время в таблицах - всемирное. Для получения местного времени необходимо прибавить поправку, которая равна 1 ч.

Смотрите также архив погоды в соседних городах и на ближайших метеорологических станциях:

Погода в Брешиа (Италия) (35 км)
Погода в Тренто (Италия) (59 км)
Погода на Паганелле (Италия) (65 км)
Погода в Бергамо (Италия) (66 км)
Погода в Роббие (Швейцария) (84 км)
Погода на Пиц Корваче (Швейцария) (101 км)
Погода в Милане (Италия) (102 км)
Погода в Сегл-Марие (Швейцария) (104 км)
Погода в Санта-Мария-Валь-Мюстаире (Швейцария) (104 км)
Погода в Пьяченце (Италия) (105 км)

Пояснения к столбцам:

Ветер - указаны скорость ветра в м/с - средняя за 10 мин, порывы в срок и между сроками (в фигурных скобках) и направление, откуда дует ветер: С - северный, СВ - северо-восточный, В - восточный, ЮВ - юго-восточный, Ю - южный, ЮЗ - юго-западный, З - западный, СЗ - северо-западный.
Видимость - горизонтальная дальность видимости в метрах или километрах. При видимости от 1 до 10 км при отсутствии осадков обычно наблюдается дымка, при ухудшении видимости до 1 км и менее - туман. В сухую погоду видимость может ухудшаться дымом, пылью или мглою.
Явления - указаны атмосферные явления, наблюдавшиеся в срок или в последний час перед сроком; фигурными скобками обозначены явления, наблюдавшиеся между сроками (за 1-3 часа до срока); квадратными скобками обозначены град или гололедные отложения с указанием их диаметра в мм.
Облачность - указаны через наклонную черту общая и нижняя облачность в баллах и высота нижней границы облаков в метрах; квадратными скобками обозначены формы облаков: Ci - перистые, Cs - перисто-слоистые, Cc - перисто-кучевые, Ac - высококучевые, As - высокослоистые, Sc - слоисто-кучевые, Ns - слоисто-дождевые, Cu - кучевые, Cb - кучево-дождевые. Подробнее классификацию облаков см. в Атласе облаков (PDF).
T - Температура воздуха - температура, измеренная на высоте 2 м над землей.
Td - Температура точки росы - температура, при понижении до которой содержащийся в воздухе водяной пар достигнет насыщения.
f - Относительная влажность воздуха - влажноcть воздуха, измеренная на высоте 2 м над землей.
Te - Эффективная температура - температура, которую ощущает одетый по сезону человек в тени. Характеристика душности погоды. При расчете учитывается влияние влажности воздуха и скорости ветра на теплоощущения человека.
Tes - Эффективная температура на солнце - температура, которую ощущает человек, с поправкой на солнечный нагрев. Характеристика знойности погоды. Зависит от высоты солнца над горизонтом, облачности и скорости ветра. Ночью, в пасмурную погоду, а также при ветре 12 м/с и более поправка равна нулю.
P - Атмосферное давление - приведенное к уровню моря атмосферное давление.
Po - Атмосферное давление - измеренное на уровне метеостанции атмосферное давление.
Tmin - Минимальная температура - минимум температуры воздуха на высоте 2 м над землей.
Tmax - Максимальная температура - максимум температуры воздуха на высоте 2 м над землей.
R - Количество осадков - Количество выпавших осадков за период времени, мм. При наведении курсора мыши на число - период времени, за который выпало указанное количество осадков.
R24 - Количество осадков - Количество выпавших осадков за 24 часа, мм.
S - Снежный покров - Высота снежного покрова, см. При наведении курсора мыши на число - состояние снежного покрова и степень покрытия местности в баллах.